This is the latest recevied weather packets stored in our database for station/object K9ABJ. If no packets are shown the sender has not sent any weather packets the latest 10 day(s).
| Time | Temp. | Humidity | Pressure | Rain* | Wind** | Luminosity | Snow |
|---|---|---|---|---|---|---|---|
| 1787791443 | 20.56° C | 94% | 1012.3 hPa | 0 mm | - | 0 W/m² | - |
| 1787791138 | 20.56° C | 94% | 1012 hPa | 0 mm | - | 0 W/m² | - |
| 1787790834 | 20.56° C | 94% | 1012.1 hPa | 0 mm | - | 0 W/m² | - |
| 1787790534 | 20.56° C | 94% | 1011.9 hPa | 0 mm | - | 0 W/m² | - |
| 1787790230 | 20.56° C | 94% | 1012.1 hPa | 0 mm | - | 0 W/m² | - |
| 1787789925 | 20.56° C | 94% | 1012 hPa | 0 mm | - | 0 W/m² | - |
| 1787789625 | 21.11° C | 94% | 1012.1 hPa | 0 mm | - | 4 W/m² | - |
| 1787789324 | 21.11° C | 94% | 1012 hPa | 0 mm | - | 5 W/m² | - |
| 1787789020 | 20.56° C | 94% | 1011.9 hPa | 0 mm | - | 5 W/m² | - |
| 1787788718 | 21.11° C | 94% | 1012.3 hPa | 0 mm | - | 7 W/m² | - |
| 1787788417 | 21.11° C | 94% | 1012.1 hPa | 0 mm | - | 10 W/m² | - |
| 1787788112 | 21.11° C | 94% | 1012.1 hPa | 0 mm | - | 16 W/m² | - |
| 1787787807 | 21.11° C | 94% | 1012.1 hPa | 0 mm | - | 28 W/m² | - |
| 1787787507 | 21.11° C | 94% | 1012.3 hPa | 0 mm | - | 31 W/m² | - |
| 1787787206 | 21.67° C | 94% | 1012.4 hPa | 0 mm | - | 43 W/m² | - |
| 1787786906 | 21.67° C | 94% | 1012.3 hPa | 0 mm | - | 54 W/m² | - |
| 1787786601 | 21.11° C | 94% | 1012.2 hPa | 0 mm | - | 56 W/m² | - |
| 1787786296 | 20.56° C | 94% | 1012.5 hPa | 0 mm | - | 66 W/m² | - |
| 1787785993 | 20.56° C | 94% | 1012.5 hPa | 0 mm | - | 75 W/m² | - |
| 1787785692 | 20.56° C | 94% | 1012.6 hPa | 0 mm | - | 83 W/m² | - |
| 1787785387 | 21.11° C | 94% | 1013 hPa | 0 mm | - | 65 W/m² | - |
| 1787785086 | 20.56° C | 93% | 1012.6 hPa | 0 mm | - | 104 W/m² | - |
| 1787784781 | 20.56° C | 93% | 1012.8 hPa | 0 mm | - | 108 W/m² | - |
| 1787784480 | 21.67° C | 94% | 1012.6 hPa | 0 mm | - | 193 W/m² | - |
| 1787784175 | 21.67° C | 94% | 1012.3 hPa | 0 mm | - | 210 W/m² | - |
* Rain latest hour (hover to see other rain measurements)
** Current wind speed in m/s (hover to see current wind gust speed)